This is the latest recevied weather packets stored in our database for station/object W8RSN-13. If no packets are shown the sender has not sent any weather packets the latest 10 day(s).
| Time | Temp. | Humidity | Pressure | Rain* | Wind** | Luminosity | Snow |
|---|---|---|---|---|---|---|---|
| 1787397197 | 21.67° C | 59% | 1016.4 hPa | - | - | - | - |
| 1787396896 | 22.22° C | 58% | 1016.5 hPa | - | - | - | - |
| 1787396615 | 22.22° C | 59% | 1016.3 hPa | - | - | - | - |
| 1787396315 | 22.22° C | 58% | 1016.5 hPa | - | - | - | - |
| 1787396013 | 22.22° C | 58% | 1016.4 hPa | - | - | - | - |
| 1787395713 | 22.22° C | 57% | 1016.3 hPa | - | - | - | - |
| 1787395412 | 22.22° C | 58% | 1016.4 hPa | - | - | - | - |
| 1787395111 | 22.22° C | 58% | 1016.4 hPa | - | - | - | - |
| 1787394810 | 22.22° C | 60% | 1016.3 hPa | - | - | - | - |
| 1787394509 | 22.22° C | 60% | 1016.3 hPa | - | - | - | - |
| 1787394208 | 22.22° C | 60% | 1016.4 hPa | - | - | - | - |
| 1787393907 | 22.22° C | 61% | 1016.5 hPa | - | - | - | - |
| 1787393606 | 22.22° C | 59% | 1016.6 hPa | - | - | - | - |
| 1787393305 | 22.22° C | 62% | 1016.7 hPa | - | - | - | - |
| 1787393004 | 22.22° C | 62% | 1016.8 hPa | - | - | - | - |
| 1787392703 | 22.22° C | 62% | 1016.6 hPa | - | - | - | - |
| 1787392402 | 22.22° C | 61% | 1016.6 hPa | - | - | - | - |
| 1787392101 | 22.22° C | 62% | 1016.7 hPa | - | - | - | - |
| 1787391801 | 22.22° C | 62% | 1016.8 hPa | - | - | - | - |
| 1787391499 | 22.78° C | 62% | 1016.7 hPa | - | - | - | - |
| 1787391199 | 22.78° C | 62% | 1016.7 hPa | - | - | - | - |
| 1787390897 | 22.78° C | 63% | 1016.6 hPa | - | - | - | - |
| 1787390597 | 22.78° C | 61% | 1016.5 hPa | - | - | - | - |
| 1787390296 | 22.78° C | 62% | 1016.6 hPa | - | - | - | - |
| 1787390015 | 22.78° C | 60% | 1016.8 hPa | - | - | - | - |
* Rain since midnight (hover to see other rain measurements)
** Current wind speed in m/s (hover to see current wind gust speed)